Regional Weather Roundup
Issued by NWS

Home | Current Version | Previous Version | Text Only | Print | Product List | Glossary On
Versions: 1 2 3 4 5 6 7 8 9 10 11 12 13 14 15 16 17 18 19 20 21 22 23 24 25 26 27 28 29 30 31 32 33 34 35 36 37 38 39 40 41 42 43 44 45 46 47 48 49 50
000
ASUS44 KOUN 022310
RWROK

WEATHER ROUNDUP FOR OKLAHOMA
NATIONAL WEATHER SERVICE NORMAN OK
500 PM CST FRI DEC 02 2016

NOTE: "FAIR" INDICATES FEW OR NO CLOUDS BELOW 12,000 FEET WITH NO
      SIGNIFICANT WEATHER AND/OR OBSTRUCTIONS TO VISIBILITY.

OKZ001>007-009>012-014-015-017-030000-
NORTHWEST OKLAHOMA AND THE PANHANDLE

CITY           SKY/WX    TMP DP  RH WIND       PRES   REMARKS
GAGE           PTCLDY    49  20  31 NE17G24   30.13R
GUYMON         CLOUDY    46  12  25 NE12G20   30.15R
ENID/WOODRING  MOCLDY    54  32  43 NE9       30.15F
$$

OKZ016-021>023-033>039-044-045-030000-
SOUTHWEST OKLAHOMA

CITY           SKY/WX    TMP DP  RH WIND       PRES   REMARKS
LAWTON/REGL    CLOUDY    57  45  64 E14       30.08S
LAWTON/FT SILL CLOUDY    56  44  62 E10       30.06S
FREDERICK      LGT RAIN  54  44  69 E13       30.04R
CLINTON        LGT RAIN  48  31  51 NE16      30.10F
HOBART         CLOUDY    50  32  50 NE20      30.08F
ALTUS AFB      LGT RAIN  51  37  57 NE9       30.07R
$$

OKZ018>020-024>031-030000-
CENTRAL OKLAHOMA

CITY           SKY/WX    TMP DP  RH WIND       PRES   REMARKS
OKLAHOMA CITY  MOCLDY    53  32  44 NE6       30.12F
OKC/WILEY POST PTCLDY    52  32  46 N7        30.13F
OKC/TINKER AFB PTCLDY    55  39  53 E9        30.11F
STILLWATER     CLOUDY    54  31  41 NE8       30.16S
GUTHRIE        PTCLDY    53  33  46 NE6       30.15S
$$

OKZ008-013-054>072-030000-
NORTHEAST OKLAHOMA

CITY           SKY/WX    TMP DP  RH WIND       PRES   REMARKS
TULSA          CLOUDY    56  39  53 E5        30.17S
TULSA/JONES    MOCLDY    58  38  47 E3        30.18S
PONCA CITY     CLEAR     53  29  39 NE8       30.18S
BARTLESVILLE   PTCLDY    52  30  43 NE5       30.22R
MUSKOGEE       CLOUDY    58  36  43 CALM      30.20R
$$

OKZ032-040>043-046>053-073>077-030000-
SOUTH CENTRAL/SOUTHEAST OKLAHOMA

CITY           SKY/WX    TMP DP  RH WIND       PRES   REMARKS
ARDMORE/DWNTWN CLOUDY    54  37  54 E3        30.11F
MCALESTER      CLOUDY    57  40  52 N5        30.16S
$$





USA.gov is the U.S. government's official web portal to all federal, state and local government web resources and services.